Regional Weather Roundup
Issued by NWS Midland/Odessa, TX

Home | Current Version | Previous Version | Text Only | Print | Product List | Glossary On
Versions: 1 2 3 4 5 6 7 8 9 10 11 12 13 14 15 16 17 18 19 20 21 22 23 24 25 26 27 28 29 30 31 32 33 34 35 36 37 38 39 40 41 42 43 44 45 46 47 48 49 50
000
ASUS44 KMAF 232001
RWRMAF
MIDLAND AREA WEATHER ROUNDUP
NATIONAL WEATHER SERVICE MIDLAND TX
300 PM CDT MON APR 23 2018

...IN SOUTHWEST TEXAS AND SOUTHEAST NEW MEXICO...

CITY           SKY/WX    TMP DP  RH WIND       PRES   REMARKS
ALPINE         SUNNY     82  31  16 CALM      30.16F
ANDREWS        FAIR      77  37  23 S6        30.11F
ARTESIA        FAIR      79  37  22 SE13G22   30.07F
BIG SPRING     SUNNY     76  37  24 SE7       30.12F
CARLSBAD       FAIR      80  38  22 SE10G21   30.05F
DRYDEN           N/A     82  48  30 VRB3      30.03F
FORT STOCKTON  SUNNY     83  35  18 SE7       30.06F
GUAD PASS      FAIR      82  31  15 SW14G25   30.17F
HOBBS          SUNNY     77  34  20 SE14G22   30.11F
LAMESA         MOCLDY    73  37  27 SW8G17    30.12F
MARFA          SUNNY     81  31  16 VRB5      30.15F
MIDLAND AIRPK    N/A     84  39  20 SE5       30.10F
MIDLAND INTL   SUNNY     78  39  24 VRB7      30.09F
ODESSA         SUNNY     77  37  23 VRB5      30.09F
PECOS          SUNNY     82  36  19 E9        30.05F
PRESIDIO       FAIR      88  38  17 SE3       30.03F
SEMINOLE       SUNNY     75  35  23 SE7       30.12F
SNYDER         SUNNY     72  41  32 N5        30.11F
WINK           SUNNY     82  35  18 SE12G17   30.05F
$$
...OTHER STATIONS IN TEXAS...

CITY           SKY/WX    TMP DP  RH WIND       PRES   REMARKS
ABILENE        SUNNY     74  43  32 N8        30.10F
AMARILLO       SUNNY     69  39  33 VRB5G17   30.11F
AUSTIN         SUNNY     82  48  30 W5        30.04F
BROWNSVILLE    FAIR      84  59  42 E12G21    30.04F
CORPUS CHRISTI MOSUNNY   81  52  36 E9        30.05F
DALLAS FTW     PTSUNNY   73  51  46 NW15G23   30.03F
DEL RIO        SUNNY     84  54  35 SE12G18   30.02F
EL PASO        FAIR      84  27  12 VRB5      30.07F
HOUSTON INT    FAIR      79  54  41 W8        30.02F
LUBBOCK        SUNNY     71  38  29 S9G18     30.11F
SAN ANGELO     SUNNY     80  41  24 VRB7G16   30.07F
SAN ANTONIO    MOSUNNY   82  50  32 VRB6      30.06F
WACO           SUNNY     76  50  40 MISG      30.05F
WICHITA FALLS  SUNNY     73  42  32 N9        30.07F
$$
...OTHER LOCATIONS IN NEW MEXICO...

CITY           SKY/WX    TMP DP  RH WIND       PRES   REMARKS
ALAMOGORDO     FAIR      81  28  15 SW7       30.10F
ALBUQUERQUE    FAIR      77  21  12 S5        30.11F
CANNON AFB     NOT AVBL
CLOVIS         FAIR      74  38  27 SW13G18   30.11
HOLLOMAN AFB   NOT AVBL
ROSWELL        FAIR      79  36  21 S10G21    30.07F
RUIDOSO        FAIR      72  21  15 N10G18    30.22F
SANTA FE       FAIR      76  17  11 SW15G25   30.13F
TRUTH OR CONSE FAIR      81  20  10 VRB5      30.09F
TUCUMCARI      FAIR      77  39  25 S15G25    30.04F
$$



USA.gov is the U.S. government's official web portal to all federal, state and local government web resources and services.